[[{"header":{"parameterUnit":"m.s-1","parameterCategory":1,"la1":30.2991,"la2":30.254,"lo1":-89.0895,"lo2":-89.0444,"dy":0.0017,"dx":0.0017,"nx":28,"ny":28,"refTime":"2024-10-07T09:00:00:Z","depth":0,"parameterNumber":2,"parameterNumberName":"U-component_of_WINDS"},"data":[0,0,0,0,0,0,0,0,0,0,0,0,0,0,0,0,0,0,0,0,0,0,0,0,0,0,0,0,0,0,0,0,0,0,0,0,0,0,0,0,0,0,0,0,0,0,0,0,0,0,0,0,0,0,0,0,0,0,-3.5461,-3.5461,0,-3.5526,-3.5526,-3.5527,-3.5494,-3.5492,-3.549,-3.5489,-3.5556,-3.5559,-3.5563,0,0,0,0,0,0,0,0,0,0,0,0,0,-3.5309,-3.5312,-3.5461,-3.5462,-3.5462,-3.5526,-3.5526,-3.5527,-3.5494,-3.5492,-3.549,-3.5488,-3.5555,-3.5559,-3.5563,0,0,0,0,0,0,0,0,0,0,0,0,0,-3.5375,-3.5313,-3.5461,-3.5453,-3.5453,-3.5525,-3.5526,-3.5528,-3.5495,-3.5492,-3.5489,-3.5487,-3.5554,-3.5559,-3.5564,-3.5647,0,0,-3.5579,-3.5581,0,0,0,0,0,0,0,0,-3.5371,-3.538,-3.5454,-3.5454,-3.5454,-3.5499,-3.5498,-3.5567,-3.5495,-3.5479,-3.5489,-3.5486,-3.5539,-3.5545,-3.5563,-3.565,-3.5653,-3.558,-3.5583,-3.5585,-3.5586,0,0,0,0,0,0,0,-3.5366,-3.5377,-3.5486,-3.5455,-3.5455,-3.5447,-3.5454,-3.5511,-3.5523,-3.548,-3.5478,-3.5486,-3.5539,-3.5558,-3.5565,-3.5654,-3.5579,-3.5584,-3.5587,-3.5589,-3.5813,-3.5815,0,0,0,0,0,0,-3.5362,-3.5374,-3.5484,-3.5488,-3.5405,-3.5452,-3.5459,-3.5487,-3.5522,-3.5525,-3.5488,-3.5484,-3.5551,-3.5559,-3.5567,-3.5667,-3.5585,-3.559,-3.5593,-3.581,-3.5813,-3.5816,0,0,0,0,0,0,-3.5359,-3.5372,-3.5482,-3.543,-3.5444,-3.5457,-3.5489,-3.549,-3.5509,-3.5528,-3.553,-3.5506,-3.5549,-3.556,-3.5627,-3.5669,-3.5592,-3.5596,-3.5806,-3.5811,-3.5815,-3.5868,0,0,0,0,0,0,-3.5355,-3.5371,-3.5403,-3.5431,-3.5447,-3.5541,-3.5492,-3.5493,-3.5518,-3.5514,-3.5545,-3.5548,-3.5548,-3.562,-3.5632,-3.5675,-3.56,-3.5803,-3.5808,-3.5813,-3.5863,-3.5874,-3.5883,0,0,0,0,0,-3.5349,-3.5415,-3.5405,-3.5418,-3.5486,-3.5543,-3.5552,-3.5551,-3.5522,-3.5554,-3.5566,-3.5547,-3.5662,-3.5627,-3.5641,-3.5685,-3.58,-3.5807,-3.5813,-3.5858,-3.5872,-3.5883,0,0,0,0,0,0,-3.5391,-3.5419,-3.5407,-3.5484,-3.5512,-3.5538,-3.5578,-3.5565,-3.5601,-3.5596,-3.5592,-3.56,-3.567,-3.5684,-3.5644,-3.5768,-3.5727,-3.5736,-3.5756,-3.5769,-3.5779,-3.5775,-3.5605,0,0,0,0,0,-3.5409,-3.5453,-3.5475,-3.5541,-3.5555,-3.5564,-3.5589,-3.5585,-3.5614,-3.5626,-3.5642,-3.5671,-3.5714,-3.5742,-3.5782,-3.5864,-3.5871,-3.5902,-3.5912,-3.592,-3.5929,-3.5975,-3.5989,-3.5838,-3.5838,-3.5837,0,0,-3.5447,-3.5468,-3.5496,-3.555,-3.557,-3.5617,-3.5574,-3.5624,-3.5659,-3.5633,-3.5698,-3.5712,-3.5744,-3.5819,-3.5853,-3.5833,-3.5972,-3.5929,-3.5935,-3.5939,-3.5983,-3.5997,-3.601,-3.5842,-3.5841,-3.5841,0,0,-3.554,-3.556,-3.5617,-3.5639,-3.5671,-3.5677,-3.5691,-3.5719,-3.5727,-3.5792,-3.5774,-3.5815,-3.5888,-3.5912,-3.5934,-3.6037,-3.6021,-3.605,-3.6104,-3.6148,-3.616,-3.6171,-3.6209,-3.6222,-3.6058,-3.6058,-3.6058,0,-3.5584,-3.5652,-3.5648,-3.5701,-3.5725,-3.5704,-3.5763,-3.5784,-3.5828,-3.5846,-3.5822,-3.5914,-3.5934,-3.6016,-3.6041,-3.6058,-3.6075,-3.6047,-3.6159,-3.6169,-3.6179,-3.6215,-3.6229,-3.6061,-3.6061,-3.6061,-3.606,0,-3.5704,-3.5752,-3.5795,-3.5838,-3.5867,-3.5922,-3.5927,-3.5958,-3.5952,-3.596,-3.6027,-3.605,-3.6095,-3.6114,-3.6108,-3.6195,-3.6182,-3.6159,-3.6117,-3.6197,-3.6231,-3.6245,-3.6066,-3.6065,-3.6064,-3.6063,0,0,-3.5826,-3.5867,-3.5883,-3.5902,-3.5936,-3.5974,-3.6028,-3.6072,-3.6098,-3.6129,-3.6176,-3.6238,-3.6217,-3.6242,-3.6239,-3.6278,-3.6359,-3.625,-3.6251,-3.6271,-3.6458,-3.6476,-3.6492,-3.6349,-3.6351,-3.6353,-3.6456,0,-3.5923,-3.6018,-3.6016,-3.6105,-3.615,-3.613,-3.6177,-3.6204,-3.6213,-3.6253,-3.6263,-3.6308,-3.6276,-3.6291,-3.6329,-3.6342,-3.6397,-3.6334,-3.6393,-3.6395,-3.6387,-3.651,-3.6529,-3.6624,-3.6469,-3.6471,-3.6473,0,-3.6048,-3.6083,-3.6177,-3.6205,-3.6224,-3.6267,-3.6307,-3.6345,-3.6375,-3.6379,-3.6407,-3.6398,-3.6454,-3.641,-3.6487,-3.6445,-3.6468,-3.6478,-3.6482,-3.6489,-3.644,-3.6521,-3.6655,-3.667,-3.6493,-3.6492,-3.649,0,-3.6129,-3.62,-3.6265,-3.6283,-3.6317,-3.6348,-3.6364,-3.6391,-3.6418,-3.6453,-3.6471,-3.6512,-3.6535,-3.6568,-3.6571,-3.6538,-3.665,-3.6606,-3.6656,-3.6656,-3.6681,-3.668,-3.6822,-3.6694,-3.6694,-3.6694,-3.6693,0,-3.6238,-3.6296,-3.6303,-3.6343,-3.6408,-3.6405,-3.647,-3.6482,-3.6507,-3.655,-3.6535,-3.6575,-3.6576,-3.6618,-3.662,-3.6685,-3.6695,-3.67,-3.6701,-3.6703,-3.6702,-3.672,-3.6714,-3.6697,-3.6696,-3.6696,-3.6695,0,-3.6341,-3.6347,-3.6417,-3.6444,-3.6452,-3.6499,-3.6522,-3.6561,-3.6568,-3.6623,-3.6635,-3.6648,-3.6696,-3.6702,-3.6758,-3.676,-3.6838,-3.6831,-3.6829,-3.6828,-3.6878,-3.6874,-3.7038,-3.706,-3.6916,-3.6917,-3.6918,0,-3.641,-3.6455,-3.6486,-3.6514,-3.6532,-3.6576,-3.6604,-3.6603,-3.6632,-3.667,-3.6704,-3.6751,-3.6789,-3.6867,-3.6881,-3.6925,-3.6919,-3.6973,-3.6925,-3.6927,-3.6922,-3.692,-3.6925,-3.6983,-3.6985,-3.6986,-3.6987,0,-3.6534,-3.6535,-3.6575,-3.6617,-3.665,-3.6683,-3.6713,-3.6737,-3.674,-3.6774,-3.6823,-3.6852,-3.691,-3.6957,-3.7,-3.7016,-3.7003,-3.7002,-3.7016,-3.7019,-3.7017,-3.702,-3.6856,-3.6998,-3.6997,-3.6996,-3.6996,-3.6995,-3.6623,-3.6662,-3.6691,-3.6736,-3.6759,-3.6789,-3.6827,-3.6839,-3.688,-3.6927,-3.6924,-3.6979,-3.7008,-3.7064,-3.7084,-3.7127,-3.7109,-3.7129,-3.7135,-3.714,-3.7146,-3.7009,-3.7135,-3.7134,-3.7134,-3.7134,-3.7133,0,-3.6748,-3.6765,-3.6807,-3.685,-3.6886,-3.687,-3.6903,-3.6934,-3.6983,-3.7011,-3.7048,-3.7106,-3.7151,-3.7169,-3.7214,-3.7246,-3.7241,-3.7258,-3.7256,-3.7261,-3.7159,-3.7143,-3.7261,-3.7261,-3.7261,-3.7261,-3.7261,-3.7261,-3.6817,-3.6882,-3.6887,-3.6964,-3.6981,-3.7034,-3.7055,-3.7082,-3.7105,-3.7169,-3.7207,-3.7219,-3.7243,-3.729,-3.7331,-3.7336,-3.7354,-3.7374,-3.7375,-3.728,-3.7267,-3.7255,-3.724,-3.7377,-3.7377,-3.7474,-3.7475,-3.7475]},{"header":{"parameterUnit":"m.s-1","parameterCategory":1,"la1":30.2991,"la2":30.254,"lo1":-89.0895,"lo2":-89.0444,"dy":0.0017,"dx":0.0017,"nx":28,"ny":28,"refTime":"2024-10-07T09:00:00:Z","depth":0,"parameterNumber":3,"parameterNumberName":"V-component_of_WINDS"},"data":[0,0,0,0,0,0,0,0,0,0,0,0,0,0,0,0,0,0,0,0,0,0,0,0,0,0,0,0,0,0,0,0,0,0,0,0,0,0,0,0,0,0,0,0,0,0,0,0,0,0,0,0,0,0,0,0,0,0,-5.5546,-5.5547,0,-5.5569,-5.5569,-5.5569,-5.5493,-5.549,-5.5488,-5.5486,-5.5505,-5.5508,-5.551,0,0,0,0,0,0,0,0,0,0,0,0,0,-5.5435,-5.5437,-5.5546,-5.5547,-5.5547,-5.5569,-5.5569,-5.5569,-5.5493,-5.549,-5.5487,-5.5485,-5.5504,-5.5508,-5.5511,0,0,0,0,0,0,0,0,0,0,0,0,0,-5.5473,-5.5438,-5.5546,-5.5512,-5.5509,-5.5569,-5.5569,-5.5569,-5.5494,-5.549,-5.5487,-5.5484,-5.5503,-5.5507,-5.5511,-5.5604,0,0,-5.5523,-5.5525,0,0,0,0,0,0,0,0,-5.5471,-5.5477,-5.5517,-5.5514,-5.5511,-5.5524,-5.5537,-5.5581,-5.5494,-5.5499,-5.5486,-5.5482,-5.5514,-5.5517,-5.5529,-5.5605,-5.5606,-5.5524,-5.5526,-5.5528,-5.5529,0,0,0,0,0,0,0,-5.5468,-5.5476,-5.5555,-5.5517,-5.5514,-5.5494,-5.5496,-5.5545,-5.5526,-5.5499,-5.5493,-5.5497,-5.5512,-5.5525,-5.5529,-5.5606,-5.5524,-5.5527,-5.553,-5.5531,-5.5761,-5.5765,0,0,0,0,0,0,-5.5471,-5.5474,-5.5554,-5.5556,-5.5482,-5.5499,-5.5501,-5.5524,-5.5525,-5.5522,-5.55,-5.5493,-5.552,-5.5524,-5.5529,-5.5639,-5.5528,-5.5531,-5.5534,-5.5758,-5.5762,-5.5766,0,0,0,0,0,0,-5.5469,-5.5479,-5.5553,-5.5513,-5.5521,-5.5504,-5.5531,-5.5526,-5.5539,-5.5526,-5.5522,-5.5517,-5.5517,-5.5523,-5.5587,-5.5639,-5.5533,-5.5537,-5.5753,-5.5759,-5.5764,-5.586,0,0,0,0,0,0,-5.5466,-5.5478,-5.5514,-5.5515,-5.5524,-5.5612,-5.5534,-5.5529,-5.5546,-5.5538,-5.5541,-5.5538,-5.5515,-5.5581,-5.5591,-5.5642,-5.554,-5.5749,-5.5756,-5.5763,-5.5852,-5.5868,-5.5882,0,0,0,0,0,-5.5462,-5.5539,-5.5517,-5.5527,-5.5569,-5.5615,-5.562,-5.5593,-5.5551,-5.5586,-5.5578,-5.5538,-5.5631,-5.5588,-5.5598,-5.5652,-5.5745,-5.5754,-5.5762,-5.5845,-5.5865,-5.5881,0,0,0,0,0,0,-5.5543,-5.5539,-5.5513,-5.5593,-5.5606,-5.5602,-5.5646,-5.5615,-5.5638,-5.5629,-5.5594,-5.5595,-5.5665,-5.5664,-5.5616,-5.5743,-5.5681,-5.5692,-5.5741,-5.5759,-5.5774,-5.5773,-5.5543,0,0,0,0,0,-5.5571,-5.561,-5.5603,-5.5674,-5.5682,-5.5664,-5.5683,-5.5661,-5.5672,-5.5676,-5.5672,-5.5683,-5.5715,-5.5737,-5.5765,-5.5851,-5.5851,-5.5893,-5.5908,-5.592,-5.593,-5.5976,-5.5995,-5.5794,-5.5794,-5.5794,0,0,-5.5628,-5.563,-5.5657,-5.5691,-5.5698,-5.5739,-5.5668,-5.5714,-5.5744,-5.5682,-5.5743,-5.5741,-5.575,-5.5826,-5.5859,-5.5828,-5.5986,-5.5931,-5.5941,-5.5944,-5.5987,-5.6006,-5.6023,-5.58,-5.5799,-5.5798,0,0,-5.5752,-5.5758,-5.5819,-5.5827,-5.5839,-5.5827,-5.5841,-5.5843,-5.584,-5.59,-5.5855,-5.589,-5.5945,-5.5954,-5.5966,-5.6096,-5.606,-5.6106,-5.6184,-5.6229,-5.6245,-5.6259,-5.6306,-5.6324,-5.6116,-5.6116,-5.6116,0,-5.5821,-5.5882,-5.5853,-5.5903,-5.592,-5.5867,-5.5928,-5.5938,-5.5958,-5.597,-5.5935,-5.6004,-5.6007,-5.6085,-5.6117,-5.6128,-5.6143,-5.6106,-5.6246,-5.6259,-5.6272,-5.6316,-5.6334,-5.6122,-5.6121,-5.612,-5.612,0,-5.5967,-5.601,-5.6057,-5.608,-5.6101,-5.6156,-5.6135,-5.616,-5.6137,-5.6128,-5.619,-5.6192,-5.622,-5.6237,-5.6214,-5.6311,-5.6292,-5.6252,-5.6189,-5.6297,-5.6338,-5.6355,-5.613,-5.6128,-5.6126,-5.6124,0,0,-5.6143,-5.615,-5.6168,-5.6179,-5.6188,-5.6221,-5.6273,-5.6302,-5.6325,-5.6341,-5.6384,-5.6433,-5.6396,-5.641,-5.6387,-5.6427,-5.6531,-5.6382,-5.6382,-5.6411,-5.664,-5.6671,-5.6691,-5.6507,-5.651,-5.6512,-5.6639,0,-5.6266,-5.6358,-5.6334,-5.6425,-5.6465,-5.6416,-5.6462,-5.6473,-5.6466,-5.6497,-5.6488,-5.6524,-5.6473,-5.6481,-5.6518,-5.6511,-5.6577,-5.6501,-5.6547,-5.6549,-5.6547,-5.6712,-5.6745,-5.6864,-5.6655,-5.6658,-5.666,0,-5.6423,-5.6447,-5.6543,-5.6547,-5.6563,-5.6605,-5.663,-5.6661,-5.6672,-5.6664,-5.6681,-5.665,-5.6701,-5.6638,-5.6708,-5.6657,-5.6674,-5.6674,-5.6677,-5.6681,-5.6612,-5.6722,-5.6902,-5.692,-5.6685,-5.6683,-5.6681,0,-5.6544,-5.6599,-5.6664,-5.6674,-5.6681,-5.6712,-5.6716,-5.6723,-5.6743,-5.6764,-5.6777,-5.6804,-5.6819,-5.684,-5.6818,-5.6774,-5.6892,-5.6826,-5.6886,-5.6887,-5.6914,-5.6913,-5.7101,-5.6924,-5.6924,-5.6923,-5.6923,0,-5.6685,-5.6745,-5.6719,-5.6759,-5.6825,-5.6797,-5.6863,-5.6861,-5.6868,-5.6907,-5.6865,-5.6902,-5.687,-5.6903,-5.6885,-5.6947,-5.6953,-5.6948,-5.6943,-5.6953,-5.6954,-5.6964,-5.6956,-5.6928,-5.6927,-5.6926,-5.6925,0,-5.6831,-5.6816,-5.6883,-5.6885,-5.6886,-5.6936,-5.6936,-5.6973,-5.6963,-5.7012,-5.7022,-5.7006,-5.7043,-5.7023,-5.7061,-5.7049,-5.7129,-5.7112,-5.7126,-5.7122,-5.7184,-5.7179,-5.7386,-5.7412,-5.7217,-5.7219,-5.7221,0,-5.6922,-5.6968,-5.6975,-5.6999,-5.7006,-5.7044,-5.7065,-5.7038,-5.7061,-5.7077,-5.7112,-5.7146,-5.7172,-5.7234,-5.7225,-5.7254,-5.7238,-5.7309,-5.7242,-5.7251,-5.7241,-5.7239,-5.7244,-5.7323,-5.7325,-5.7327,-5.7328,0,-5.7087,-5.7078,-5.7109,-5.7139,-5.7165,-5.7187,-5.7205,-5.7226,-5.7199,-5.7227,-5.7266,-5.7286,-5.7326,-5.736,-5.7385,-5.7388,-5.7354,-5.7349,-5.7365,-5.7376,-5.7383,-5.7381,-5.7164,-5.7345,-5.7343,-5.7342,-5.7341,-5.734,-5.7209,-5.7248,-5.726,-5.7297,-5.7308,-5.7326,-5.7362,-5.7357,-5.7389,-5.7421,-5.7402,-5.7448,-5.7458,-5.7488,-5.7496,-5.753,-5.7502,-5.7525,-5.753,-5.7537,-5.7546,-5.7377,-5.7535,-5.7534,-5.7534,-5.7533,-5.7533,0,-5.7373,-5.7378,-5.7413,-5.744,-5.747,-5.7436,-5.7454,-5.7481,-5.7522,-5.7535,-5.7562,-5.7607,-5.764,-5.7635,-5.7665,-5.7694,-5.768,-5.7703,-5.7701,-5.7703,-5.7569,-5.7553,-5.7715,-5.7715,-5.7715,-5.7715,-5.7715,-5.7715,-5.7461,-5.7527,-5.7519,-5.7589,-5.7593,-5.7639,-5.7652,-5.7669,-5.7679,-5.7732,-5.776,-5.7757,-5.7762,-5.7793,-5.7822,-5.7819,-5.7833,-5.7863,-5.7855,-5.773,-5.7712,-5.7695,-5.768,-5.7866,-5.7866,-5.7986,-5.7987,-5.7988]}]]